AirNav   Everest Fuels
 
 864 users online  

82IS Landings Condominium Airport
Huntley, Illinois, USA

GOING TO HUNTLEY?


FAA INFORMATION EFFECTIVE 28 FEBRUARY 2019

Location

FAA Identifier: 82IS
Lat/Long: 42-08-35.6650N / 088-24-11.9250W
42-08.594417N / 088-24.198750W
42.1432403 / -88.4033125
(estimated)
Elevation: 888 ft. / 271 m (estimated)
Variation: 00E (1980)
From city: 2 miles SE of HUNTLEY, IL
Time zone: UTC -6 (UTC -5 during Daylight Saving Time)
Zip code: 60142

Airport Operations

Airport use: Private use. Permission required prior to landing
Activation date: 09/1973
Control tower: no
ARTCC: CHICAGO CENTER
FSS: KANKAKEE FLIGHT SERVICE STATION
NOTAMs facility: FDC (NOTAM-D service not available)
Attendance: 1000-1800
Wind indicator: yes
Segmented circle: yes
Lights: ACTVT MIRL RY 13/31; PAPI RWY 31 - 122.9.
Beacon: white-green (lighted land airport)
Operates sunset to sunrise.

Airport Communications

WX ASOS at DPA (16 nm SE): PHONE 630-584-2728
WX AWOS-3 at 06C (16 nm SE): 128.275 ((847) 895-2887)
WX AWOS-3 at DKB (18 nm SW): 119.075 (815-748-2350)

Nearby radio navigation aids

VOR radial/distance  VOR name  Freq  Var
DPAr349/15.4DUPAGE VOR/DME108.4002E
OBKr259/20.6NORTHBROOK VOR/DME113.0002W
RFDr097/35.7ROCKFORD VOR/DME110.8001E
JOTr352/36.0JOLIET VOR/DME112.3002E
JVLr126/39.9JANESVILLE VOR/DME114.3003E

 
NDB name  Hdg/Dist  Freq  Var  ID
LAKE LAWN168/34.440402WLVV .-.. ...- ...-

Airport Services

Airframe service: NONE
Powerplant service: NONE

Runway Information

Runway 13/31

Dimensions: 3141 x 50 ft. / 957 x 15 m
Surface: asphalt
Runway edge lights: medium intensity
RUNWAY 13  RUNWAY 31
Latitude: 42-08.769167N42-08.419667N
Longitude: 088-24.454833W088-23.942667W
Elevation: 881.0 ft.888.0 ft.
Traffic pattern: leftright
Displaced threshold: no394 ft.
Visual slope indicator: 2-light PAPI on right (4.00 degrees glide path)
Runway end identifier lights: no
Touchdown point: yes, no lightsyes, no lights
Obstructions: nonerr

Airport Ownership and Management from official FAA records

Ownership: Privately-owned
Owner: LANDINGS CONDO OWNERS ASSOC
BOX 0697
HUNTLEY, IL 60142
Phone 847-669-3515
Manager: LACOA BOARD OF DIRECTORS
BOX 0697
HUNTLEY, IL 60142
Phone 847-669-3515

Airport Operational Statistics

Aircraft based on the field: 112
Single engine airplanes: 96
Multi engine airplanes: 12
Helicopters: 4
    

Additional Remarks

FOR CD CTC CHICAGO APCH AT 847-289-0926.

Instrument Procedures

There are no published instrument procedures at 82IS.

Some nearby airports with instrument procedures:

3CK - Lake in the Hills Airport (5 nm NE)
10C - Galt Field Airport (16 nm N)
KDPA - DuPage Airport (16 nm SE)
C81 - Campbell Airport (18 nm NE)
KDKB - De Kalb Taylor Municipal Airport (18 nm SW)
 
Loc | Ops | Rwys | IFR | FBO | Links
Com | Nav | Svcs | Stats | Notes
Area around 82IS (Landings Condominium Airport)
 
Road maps at: MapQuest Bing Google
 
Aerial photo
WARNING: Photo may not be current or correct
Aerial photo of 82IS (Landings Condominium Airport)
Photo taken 05-Sep-2006

Do you have a better or more recent aerial photo of Landings Condominium Airport that you would like to share? If so, please send us your photo.

 
Sectional chart

 
Airport distance calculator
Flying to Landings Condominium Airport? Find the distance to fly.

From to 82IS

Sunrise and sunset
Times for 25-Mar-2019
 Local
(UTC-5)
 Zulu
(UTC)
Morning civil twilight06:2111:21
Sunrise06:4911:49
Sunset19:1000:10
Evening civil twilight19:3800:38

Current date and time
Zulu (UTC)  26-Mar-2019 01:45:30
Local (UTC-5)  25-Mar-2019 20:45:30
 
METAR
KDPA 
15nm SE 
260052Z 04009KT 10SM CLR 01/M18 A3032 RMK AO2 SLP274 T00111178
K06C 
16nm SE 
260135Z AUTO 02005KT 10SM CLR 00/M14 A3033 RMK AO2 T00001142
KDKB 
18nm SW 
260135Z AUTO 04007KT 10SM CLR M02/M09 A3034 RMK AO2 T10211095
KPWK 
22nm E 
260052Z 02006KT 10SM CLR 01/M10 A3036 RMK AO2 SLP287 T00061100
KARR 
23nm S 
260052Z 03008KT 10SM CLR 01/M13 A3031 RMK AO2 SLP274 T00061128 $
KORD 
23nm SE 
260051Z 02010KT 10SM FEW250 01/M11 A3033 RMK AO2 SLP276 T00061111
KUGN 
29nm NE 
260055Z 02004KT 10SM CLR M01/M08 A3034 RMK AO2 SLP287 LAST T10111083
TAF
KDPA 
15nm SE 
252100Z 2521/2618 03015G21KT P6SM SKC FM252300 02012KT P6SM SKC FM260100 02004KT P6SM SKC FM261400 08005KT P6SM SCT200
NOTAMs
Click for the latest NOTAMs
NOTAMs are issued by the DoD/FAA and will open in a separate window not controlled by AirNav.

 

 
 

Would you like to see your business listed on this page?

 If your business provides an interesting product or service to pilots, flight crews, aircraft, or users of the Landings Condominium Airport, you should consider listing it here.  To start the listing process, click on the button below
 
Add a business
 

Other Pages about Landings Condominium Airport

Update a link
 
Copyright © AirNav, LLC. All rights reserved. Privacy Policy  Contact